TimeCST,TemperatureF,Dew PointF,Humidity,Sea Level PressureIn,VisibilityMPH,Wind Direction,Wind SpeedMPH,Gust SpeedMPH,PrecipitationIn,Events,Conditions,WindDirDegrees,DateUTC
12:53 AM,28.9,21.0,72,29.94,10.0,South,6.9,-,N/A,,Clear,190,2014-02-18 06:53:00
1:53 AM,28.9,21.9,75,29.91,10.0,South,8.1,-,N/A,,Clear,190,2014-02-18 07:53:00
2:53 AM,27.0,19.9,75,29.88,10.0,South,10.4,-,N/A,,Clear,190,2014-02-18 08:53:00
3:53 AM,28.9,21.9,75,29.85,10.0,South,12.7,-,N/A,,Clear,190,2014-02-18 09:53:00
4:53 AM,30.0,21.0,69,29.82,10.0,South,12.7,-,N/A,,Clear,180,2014-02-18 10:53:00
5:53 AM,32.0,21.9,66,29.78,10.0,South,13.8,-,N/A,,Clear,170,2014-02-18 11:53:00
6:53 AM,30.9,21.9,69,29.76,10.0,South,12.7,-,N/A,,Clear,180,2014-02-18 12:53:00
7:53 AM,36.0,24.1,62,29.78,10.0,SSW,9.2,-,N/A,,Clear,210,2014-02-18 13:53:00
8:53 AM,45.0,25.0,46,29.74,10.0,SSW,18.4,-,N/A,,Clear,210,2014-02-18 14:53:00
9:53 AM,46.9,25.0,42,29.70,10.0,SW,13.8,23.0,N/A,,Clear,220,2014-02-18 15:53:00
10:53 AM,48.0,24.1,39,29.68,10.0,SW,18.4,-,N/A,,Clear,220,2014-02-18 16:53:00
11:53 AM,50.0,24.1,36,29.66,10.0,SW,23.0,31.1,N/A,,Clear,220,2014-02-18 17:53:00
12:53 PM,48.0,26.1,42,29.65,10.0,SW,20.7,31.1,N/A,,Clear,230,2014-02-18 18:53:00
1:53 PM,48.9,27.0,43,29.62,10.0,SW,23.0,29.9,N/A,,Clear,220,2014-02-18 19:53:00
2:53 PM,48.0,28.9,48,29.64,10.0,SW,17.3,-,N/A,,Clear,230,2014-02-18 20:53:00
3:53 PM,48.0,30.9,52,29.65,10.0,WSW,16.1,-,N/A,,Clear,240,2014-02-18 21:53:00
4:53 PM,46.9,30.9,54,29.66,10.0,WSW,10.4,-,N/A,,Clear,240,2014-02-18 22:53:00
5:53 PM,42.1,30.9,65,29.68,10.0,WSW,5.8,-,N/A,,Clear,250,2014-02-18 23:53:00
6:53 PM,45.0,30.9,58,29.71,10.0,WNW,6.9,-,N/A,,Clear,290,2014-02-19 00:53:00
7:53 PM,42.1,32.0,67,29.73,10.0,West,9.2,-,N/A,,Clear,280,2014-02-19 01:53:00
8:53 PM,39.9,30.0,68,29.79,10.0,NW,19.6,28.8,N/A,,Clear,320,2014-02-19 02:53:00
9:53 PM,37.9,30.0,73,29.80,10.0,NW,12.7,-,N/A,,Clear,310,2014-02-19 03:53:00
10:53 PM,37.0,30.0,76,29.82,10.0,West,10.4,-,N/A,,Clear,280,2014-02-19 04:53:00
11:53 PM,37.0,30.0,76,29.83,10.0,WNW,11.5,-,N/A,,Clear,290,2014-02-19 05:53:00